Regional Weather Roundup
Issued by NWS Sterling, VA

Home | Current Version | Previous Version | Graphics & Text | Print | Product List | Glossary On
Versions: 1 2 3 4 5 6 7 8 9 10 11 12 13 14 15 16 17 18 19 20 21 22 23 24 25 26 27 28 29 30 31 32 33 34 35 36 37 38 39 40 41 42 43 44 45 46 47 48 49 50
000
ASUS41 KLWX 120410
RWRLWX

REGIONAL WEATHER ROUNDUP
NATIONAL WEATHER SERVICE BALTIMORE MD/WASHINGTON DC
1100 PM EST THU FEB 11 2016

Note: "FAIR" indicates few or no clouds below 12,000 feet
with no significant weather and/or obstructions to visibility.
 TC=TEMPERATURE CELSIUS

 * =Non NWS site. Station does not report precipitation (e.g. rain,
    snow, etc.), thunder, or fog.

DCZ001-MDZ009-015-VAZ040>042-051-053>054-120500-
WASHINGTON METRO

CITY           SKY/WX    TMP DP  RH WIND       PRES   REMARKS
WASHINGTON NAT FAIR      23   1  38 NW12G22   30.34R WCI  12
DULLES         FAIR      19   2  47 NW7       30.32R
ANDREWS AFB    CLEAR     21  -1  38 NW15G21   30.30R WCI   8
FT BELVOIR     FAIR      21   0  40 W7        30.34R
QUANTICO       FAIR      23   2  40 N5        30.36S
COLLEGE PARK*  FAIR      23   1  39 W6        30.32S
LEESBURG*      FAIR      21   9  58 W7        30.32S
MANASSAS*      FAIR      14  10  85 CALM      30.33S
GAITHERSBURG*  CLEAR     18  -2  41 W10       30.33R WCI   6

$$

MDZ006>007-011-014-120500-
BALTIMORE METRO

CITY           SKY/WX    TMP DP  RH WIND       PRES   REMARKS
BWI AIRPORT    CLEAR     20   1  43 W10       30.31R WCI   9
MD SCIENCE CTR   N/A     21   0  39 MISG      30.25F
MARTIN STATE   CLEAR     23   5  46 W10       30.32S WCI  12
ANNAPOLIS      CLEAR     22   3  44 W7        30.33R
FORT MEADE*    CLEAR     21   1  42 W13G18    30.34R WCI   9

$$

MDZ012-015-019>023-120500-
MARYLAND EASTERN SHORE

CITY           SKY/WX    TMP DP  RH WIND       PRES   REMARKS
OCEAN CITY     CLEAR     22   3  44 NW8       30.31R WCI  12
SALISBURY      CLEAR     22   3  44 NW9       30.31R WCI  12
BAY BRIDGE AP*   N/A     23   3  42 W13G22    30.33R WCI  11
CAMBRIDGE*     CLEAR     23   1  39 NW13      30.32R WCI  11
EASTON*        CLEAR     23   3  42 NW20G25   30.35R WCI   8

$$

MDZ017>025-120500-
SOUTHERN MARYLAND

CITY           SKY/WX    TMP DP  RH WIND       PRES   REMARKS
PATUXENT RIVER PTCLDY    24   2  38 NW21G26   30.33R WCI   9
ST INIGOES     CLEAR     24   3  40 NW15G23   30.32R WCI  11
LEONARDTOWN*   CLEAR     23   1  39 CALM      30.35R

$$

MDZ003>005-120500-
NORTH CENTRAL MARYLAND

CITY           SKY/WX    TMP DP  RH WIND       PRES   REMARKS
FREDERICK*     CLEAR     19   5  53 W9        30.34R WCI   9
HAGERSTOWN APT CLEAR     16   0  49 W6        30.27R
WESTMINSTER*   CLOUDY    16   7  67 W7        30.25R

$$

MDZ501>502-120500-
WESTERN MARYLAND

CITY           SKY/WX    TMP DP  RH WIND       PRES   REMARKS
OAKLAND*       CLOUDY     7   3  85 NW7       30.07F
CUMBERLAND*    MOCLDY    19   3  49 CALM      30.32S

$$

VAZ025>031-120500-
SHENANDOAH VALLEY

CITY           SKY/WX    TMP DP  RH WIND       PRES   REMARKS
WINCHESTER*    FAIR      19   5  53 CALM      30.29R
FRONT ROYAL*   FAIR      19   1  45 W7        30.28S
LURAY*         FAIR      18   1  49 W6        30.28S
NEW MARKET*    FAIR      13   3  66 CALM      30.27S
STAUNTON*      FAIR      20   5  52 CALM      30.27F
WAYNESBORO*    FAIR      15   0  53 CALM      30.24S

$$

WVZ021-048>050-054>055-120500-
EASTERN WEST VIRGINIA PANHANDLE

CITY           SKY/WX    TMP DP  RH WIND       PRES   REMARKS
MARTINSBURG    FAIR      18   0  45 W14       30.29S WCI   4
PETERSBURG*    FAIR      17   3  55 CALM      30.29S

$$

VAZ036>039-050-120500-
CENTRAL FOOTHILLS

CITY           SKY/WX    TMP DP  RH WIND       PRES   REMARKS
CHARLOTTESVILL FAIR      21   0  39 NW3       30.30R
CULPEPER*      FAIR      16   6  64 CALM      30.33S
ORANGE*        FAIR      21   3  45 CALM      30.33S
GORDONSVILLE*  FAIR      21   2  45 CALM      30.31S
WARRENTON*     FAIR      18   9  68 CALM      30.31F

$$

VAZ055>057-120500-
NORTH AND CENTRAL PIEDMONT

CITY           SKY/WX    TMP DP  RH WIND       PRES   REMARKS
FREDERICKSBRG* FAIR      22   4  46 NW6       30.33R
STAFFORD*      FAIR      20   0  41 N5        30.37F

$$

NCZ024-NYZ072-PAZ021-071-VAZ022-071-120500-
OTHER REGIONAL OBSERVATIONS

CITY           SKY/WX    TMP DP  RH WIND       PRES   REMARKS
NEW YORK CITY  CLEAR     19  -3  38 NW9G22    30.19R WCI   8
PHILADELPHIA   CLEAR     21  -1  38 W10       30.27R WCI  10
PITTSBURGH     PTCLDY     8  -2  63 W3        30.24S
ROANOKE        FAIR      21   4  47 NE5       30.27F
RICHMOND       FAIR      23   2  40 N12       30.32R WCI  12
RALEIGH        CLEAR     28   8  43 NE7       30.30R

$$

ANZ530>537-120500-
MARINE OBSERVATIONS

STATION/POSITION TIME  TEMP    WIND        PRES
                       AIR SEA DIR/SP/G
                 (UTC) (F)     (DEG/KT/KT) (MB)
THOMAS PT LIGHT  NOT AVBL
BALT KEY BRIDGE  0300   23                 1026.1
COVE POINT       0300   23                 1027.6
LEWISETTA        0300   26 39              1026.4
SOLOMONS ISLAND  0300   25 40                N/A
PINEY POINT      0324          360/ 13/ 15   N/A

$$




USA.gov is the U.S. government's official web portal to all federal, state and local government web resources and services.